[[{"header":{"parameterUnit":"m.s-1","parameterCategory":1,"la1":30.2991,"la2":30.254,"lo1":-89.0895,"lo2":-89.0444,"dy":0.0017,"dx":0.0017,"nx":28,"ny":28,"refTime":"2023-11-22T03:00:00:Z","depth":0,"parameterNumber":2,"parameterNumberName":"U-component_of_WINDS"},"data":[0,0,0,0,0,0,0,0,0,0,0,0,0,0,0,0,0,0,0,0,0,0,0,0,0,0,0,0,0,0,0,0,0,0,0,0,0,0,0,0,0,0,0,0,0,0,0,0,0,0,0,0,0,0,0,0,0,0,-1.0973,-1.0974,0,-1.1089,-1.109,-1.1091,-1.1031,-1.1027,-1.1024,-1.1021,-1.1143,-1.1149,-1.1156,0,0,0,0,0,0,0,0,0,0,0,0,0,-1.0702,-1.0707,-1.0973,-1.0974,-1.0976,-1.1088,-1.109,-1.1092,-1.1031,-1.1027,-1.1024,-1.102,-1.1141,-1.1149,-1.1156,0,0,0,0,0,0,0,0,0,0,0,0,0,-1.0819,-1.0709,-1.0972,-1.0959,-1.0959,-1.1088,-1.109,-1.1092,-1.1032,-1.1027,-1.1023,-1.1018,-1.1139,-1.1148,-1.1157,-1.1307,0,0,-1.1185,-1.1189,0,0,0,0,0,0,0,0,-1.0812,-1.0829,-1.0959,-1.096,-1.096,-1.104,-1.1039,-1.1164,-1.1033,-1.1004,-1.1021,-1.1016,-1.1113,-1.1124,-1.1156,-1.1313,-1.1318,-1.1186,-1.1192,-1.1196,-1.1198,0,0,0,0,0,0,0,-1.0804,-1.0824,-1.1019,-1.0961,-1.0962,-1.0948,-1.0959,-1.1063,-1.1084,-1.1006,-1.1002,-1.1017,-1.1112,-1.1148,-1.1159,-1.132,-1.1186,-1.1194,-1.12,-1.1203,-1.1607,-1.1612,0,0,0,0,0,0,-1.0796,-1.0817,-1.1015,-1.1022,-1.0873,-1.0957,-1.0969,-1.1019,-1.1082,-1.1087,-1.1021,-1.1013,-1.1134,-1.1148,-1.1163,-1.1344,-1.1196,-1.1204,-1.1209,-1.1602,-1.1608,-1.1614,0,0,0,0,0,0,-1.0791,-1.0815,-1.101,-1.0919,-1.0942,-1.0966,-1.1023,-1.1024,-1.1059,-1.1093,-1.1097,-1.1052,-1.1131,-1.115,-1.1272,-1.1347,-1.1208,-1.1217,-1.1596,-1.1604,-1.1611,-1.1707,0,0,0,0,0,0,-1.0783,-1.0813,-1.087,-1.092,-1.0947,-1.1117,-1.1027,-1.103,-1.1075,-1.1067,-1.1124,-1.1129,-1.1129,-1.1258,-1.1281,-1.1358,-1.1224,-1.1589,-1.1599,-1.1608,-1.1697,-1.1717,-1.1734,0,0,0,0,0,-1.0774,-1.0893,-1.0873,-1.0897,-1.1019,-1.1121,-1.1137,-1.1134,-1.1081,-1.1139,-1.1161,-1.1127,-1.1335,-1.1271,-1.1296,-1.1377,-1.1584,-1.1596,-1.1608,-1.1689,-1.1713,-1.1734,0,0,0,0,0,0,-1.0852,-1.0899,-1.0878,-1.1016,-1.1065,-1.1111,-1.1184,-1.1159,-1.1225,-1.1215,-1.1208,-1.1222,-1.1349,-1.1375,-1.1303,-1.1526,-1.1452,-1.1469,-1.1505,-1.1528,-1.1546,-1.1539,-1.1232,0,0,0,0,0,-1.0885,-1.0963,-1.1,-1.1119,-1.1145,-1.116,-1.1205,-1.1198,-1.1249,-1.1269,-1.13,-1.1351,-1.1428,-1.1479,-1.1552,-1.17,-1.1712,-1.1767,-1.1786,-1.1801,-1.1817,-1.1898,-1.1924,-1.1652,-1.1652,-1.1652,0,0,-1.0955,-1.099,-1.104,-1.1136,-1.1173,-1.1256,-1.1178,-1.1268,-1.133,-1.1283,-1.1401,-1.1425,-1.1482,-1.1618,-1.1679,-1.1643,-1.1894,-1.1816,-1.1827,-1.1835,-1.1913,-1.1938,-1.1961,-1.166,-1.1658,-1.1657,0,0,-1.1124,-1.1158,-1.1261,-1.13,-1.1356,-1.1366,-1.139,-1.144,-1.1454,-1.1571,-1.1538,-1.1611,-1.1744,-1.1786,-1.1825,-1.201,-1.1982,-1.2033,-1.2131,-1.221,-1.2232,-1.2251,-1.2319,-1.2343,-1.2048,-1.2049,-1.2049,0,-1.1204,-1.1326,-1.1318,-1.1411,-1.1455,-1.1414,-1.152,-1.1558,-1.1636,-1.1667,-1.1625,-1.179,-1.1826,-1.1972,-1.2017,-1.2049,-1.2078,-1.2028,-1.2229,-1.2248,-1.2266,-1.233,-1.2356,-1.2055,-1.2054,-1.2053,-1.2053,0,-1.1423,-1.1508,-1.1584,-1.166,-1.1712,-1.1811,-1.1818,-1.1872,-1.186,-1.1874,-1.1995,-1.2035,-1.2116,-1.2149,-1.2139,-1.2295,-1.2271,-1.2229,-1.2155,-1.2298,-1.2359,-1.2383,-1.2063,-1.2061,-1.2059,-1.2058,0,0,-1.1647,-1.1715,-1.1744,-1.1778,-1.1837,-1.1903,-1.2,-1.2078,-1.2125,-1.218,-1.2262,-1.2375,-1.2337,-1.2381,-1.2374,-1.2444,-1.259,-1.2394,-1.2395,-1.2431,-1.2766,-1.2798,-1.2827,-1.257,-1.2575,-1.2579,-1.2761,0,-1.1822,-1.1991,-1.1986,-1.2144,-1.2224,-1.2186,-1.2271,-1.2317,-1.2332,-1.2403,-1.242,-1.25,-1.2443,-1.2469,-1.2536,-1.2558,-1.2657,-1.2544,-1.2649,-1.2653,-1.2638,-1.2858,-1.2893,-1.3064,-1.2785,-1.2789,-1.2792,0,-1.2049,-1.2111,-1.2277,-1.2325,-1.2358,-1.2434,-1.2505,-1.2572,-1.2624,-1.263,-1.2679,-1.2662,-1.2762,-1.2682,-1.282,-1.2744,-1.2786,-1.2803,-1.2809,-1.2821,-1.2733,-1.2878,-1.3118,-1.3144,-1.2829,-1.2826,-1.2823,0,-1.2199,-1.2323,-1.2439,-1.2469,-1.2527,-1.2582,-1.2609,-1.2655,-1.2702,-1.2765,-1.2795,-1.2868,-1.2909,-1.2967,-1.297,-1.2912,-1.311,-1.3031,-1.312,-1.312,-1.3165,-1.3163,-1.3417,-1.3189,-1.3188,-1.3188,-1.3187,0,-1.2396,-1.25,-1.2507,-1.2578,-1.2693,-1.2686,-1.2801,-1.2823,-1.2864,-1.294,-1.2911,-1.2983,-1.2982,-1.3055,-1.3058,-1.3173,-1.3191,-1.32,-1.32,-1.3204,-1.3204,-1.3234,-1.3223,-1.3194,-1.3193,-1.3192,-1.3191,0,-1.2584,-1.2592,-1.2716,-1.276,-1.2774,-1.2857,-1.2896,-1.2964,-1.2976,-1.3072,-1.3095,-1.3114,-1.3199,-1.3207,-1.3306,-1.3308,-1.3447,-1.3433,-1.343,-1.3429,-1.3518,-1.351,-1.3803,-1.3841,-1.3585,-1.3588,-1.359,0,-1.2711,-1.279,-1.2842,-1.289,-1.292,-1.2998,-1.3046,-1.3042,-1.3093,-1.3157,-1.3219,-1.33,-1.3366,-1.3503,-1.3527,-1.3602,-1.3592,-1.3689,-1.3603,-1.3605,-1.3596,-1.3592,-1.36,-1.3706,-1.3709,-1.3711,-1.3713,0,-1.2936,-1.2936,-1.3005,-1.3077,-1.3134,-1.3191,-1.3243,-1.3284,-1.3287,-1.3346,-1.3432,-1.3482,-1.3583,-1.3665,-1.3739,-1.3767,-1.3742,-1.374,-1.3765,-1.3771,-1.3767,-1.3772,-1.3478,-1.3734,-1.3732,-1.373,-1.3729,-1.3728,-1.3098,-1.3167,-1.3215,-1.3293,-1.3332,-1.3382,-1.3448,-1.3468,-1.354,-1.3621,-1.3614,-1.3709,-1.3759,-1.3855,-1.3889,-1.3965,-1.3932,-1.3968,-1.3977,-1.3987,-1.3997,-1.3752,-1.3978,-1.3977,-1.3977,-1.3976,-1.3976,0,-1.3323,-1.3352,-1.3424,-1.3498,-1.356,-1.3529,-1.3585,-1.364,-1.3724,-1.3772,-1.3836,-1.3936,-1.4015,-1.4044,-1.4122,-1.4177,-1.4167,-1.4197,-1.4195,-1.4202,-1.4021,-1.3992,-1.4204,-1.4204,-1.4204,-1.4204,-1.4204,-1.4204,-1.3448,-1.3563,-1.3569,-1.3703,-1.373,-1.3823,-1.3858,-1.3905,-1.3943,-1.4055,-1.412,-1.4138,-1.4179,-1.4259,-1.4331,-1.4337,-1.4368,-1.4405,-1.4407,-1.4237,-1.4214,-1.4193,-1.4166,-1.4411,-1.4411,-1.4582,-1.4583,-1.4584]},{"header":{"parameterUnit":"m.s-1","parameterCategory":1,"la1":30.2991,"la2":30.254,"lo1":-89.0895,"lo2":-89.0444,"dy":0.0017,"dx":0.0017,"nx":28,"ny":28,"refTime":"2023-11-22T03:00:00:Z","depth":0,"parameterNumber":3,"parameterNumberName":"V-component_of_WINDS"},"data":[0,0,0,0,0,0,0,0,0,0,0,0,0,0,0,0,0,0,0,0,0,0,0,0,0,0,0,0,0,0,0,0,0,0,0,0,0,0,0,0,0,0,0,0,0,0,0,0,0,0,0,0,0,0,0,0,0,0,-4.0745,-4.0746,0,-4.0852,-4.0853,-4.0855,-4.0802,-4.0799,-4.0796,-4.0794,-4.0902,-4.0907,-4.0913,0,0,0,0,0,0,0,0,0,0,0,0,0,-4.0491,-4.0495,-4.0744,-4.0746,-4.0747,-4.0852,-4.0853,-4.0855,-4.0802,-4.0799,-4.0796,-4.0793,-4.09,-4.0907,-4.0913,0,0,0,0,0,0,0,0,0,0,0,0,0,-4.06,-4.0497,-4.0744,-4.0734,-4.0734,-4.0852,-4.0853,-4.0855,-4.0803,-4.0799,-4.0795,-4.0791,-4.0898,-4.0906,-4.0914,-4.1048,0,0,-4.0939,-4.0943,0,0,0,0,0,0,0,0,-4.0594,-4.0609,-4.0734,-4.0735,-4.0735,-4.0809,-4.0803,-4.092,-4.0804,-4.0777,-4.0794,-4.0789,-4.0874,-4.0884,-4.0913,-4.1053,-4.1058,-4.094,-4.0945,-4.0948,-4.0951,0,0,0,0,0,0,0,-4.0586,-4.0604,-4.0787,-4.0736,-4.0736,-4.0723,-4.0733,-4.0825,-4.0848,-4.0779,-4.0775,-4.0789,-4.0874,-4.0906,-4.0916,-4.1059,-4.094,-4.0947,-4.0952,-4.0955,-4.1312,-4.1316,0,0,0,0,0,0,-4.0579,-4.0598,-4.0784,-4.079,-4.0653,-4.0731,-4.0743,-4.079,-4.0846,-4.0851,-4.0792,-4.0786,-4.0894,-4.0906,-4.0919,-4.1078,-4.0948,-4.0956,-4.0961,-4.1307,-4.1313,-4.1317,0,0,0,0,0,0,-4.0574,-4.0596,-4.0779,-4.0693,-4.0716,-4.0739,-4.0792,-4.0794,-4.0826,-4.0857,-4.086,-4.0821,-4.0891,-4.0908,-4.1016,-4.1081,-4.096,-4.0967,-4.1302,-4.1309,-4.1315,-4.1399,0,0,0,0,0,0,-4.0567,-4.0595,-4.0647,-4.0695,-4.072,-4.0875,-4.0797,-4.0799,-4.084,-4.0833,-4.0884,-4.0889,-4.0889,-4.1004,-4.1024,-4.1091,-4.0973,-4.1296,-4.1305,-4.1313,-4.139,-4.1407,-4.1422,0,0,0,0,0,-4.0558,-4.0666,-4.065,-4.0672,-4.0786,-4.0879,-4.0894,-4.0892,-4.0846,-4.0898,-4.0917,-4.0887,-4.1071,-4.1016,-4.1038,-4.1108,-4.1292,-4.1302,-4.1312,-4.1383,-4.1404,-4.1422,0,0,0,0,0,0,-4.0625,-4.0672,-4.0655,-4.0781,-4.0827,-4.087,-4.0936,-4.0915,-4.0974,-4.0965,-4.096,-4.0972,-4.1084,-4.1106,-4.1044,-4.1239,-4.1174,-4.1189,-4.122,-4.1241,-4.1256,-4.1248,-4.098,0,0,0,0,0,-4.0654,-4.0727,-4.0764,-4.0872,-4.0896,-4.0912,-4.0953,-4.0948,-4.0994,-4.1013,-4.104,-4.1086,-4.1153,-4.1198,-4.1263,-4.1393,-4.1403,-4.1452,-4.1468,-4.1481,-4.1494,-4.1563,-4.1585,-4.1351,-4.1351,-4.1351,0,0,-4.0716,-4.0751,-4.0797,-4.0886,-4.0921,-4.0995,-4.0929,-4.101,-4.1065,-4.1025,-4.1129,-4.115,-4.1201,-4.132,-4.1374,-4.1343,-4.1561,-4.1494,-4.1504,-4.151,-4.1576,-4.1598,-4.1618,-4.1358,-4.1357,-4.1356,0,0,-4.0866,-4.09,-4.0993,-4.1029,-4.1082,-4.1092,-4.1114,-4.1161,-4.1174,-4.1278,-4.1249,-4.1313,-4.1431,-4.1467,-4.1501,-4.1664,-4.1638,-4.1685,-4.1769,-4.1836,-4.1855,-4.1871,-4.1928,-4.1948,-4.1698,-4.1698,-4.1698,0,-4.0935,-4.1047,-4.1044,-4.1128,-4.1167,-4.1134,-4.1228,-4.1263,-4.1334,-4.1362,-4.1325,-4.1471,-4.1502,-4.1629,-4.1669,-4.1698,-4.1722,-4.1679,-4.1852,-4.1869,-4.1884,-4.1938,-4.1959,-4.1703,-4.1703,-4.1702,-4.1702,0,-4.1129,-4.1207,-4.1276,-4.1346,-4.1393,-4.1481,-4.149,-4.1538,-4.1529,-4.1542,-4.1647,-4.1684,-4.1754,-4.1784,-4.1776,-4.191,-4.1888,-4.1853,-4.1787,-4.1911,-4.1962,-4.1983,-4.1711,-4.1709,-4.1707,-4.1706,0,0,-4.1325,-4.1391,-4.1416,-4.1447,-4.1502,-4.1562,-4.1648,-4.1717,-4.1758,-4.1808,-4.1879,-4.1978,-4.1945,-4.1984,-4.1979,-4.2038,-4.2162,-4.1994,-4.1995,-4.2024,-4.2311,-4.2337,-4.2361,-4.2146,-4.215,-4.2153,-4.2306,0,-4.1478,-4.163,-4.1628,-4.1768,-4.1839,-4.1808,-4.1883,-4.1924,-4.1939,-4.2,-4.2015,-4.2085,-4.2037,-4.206,-4.2117,-4.2135,-4.222,-4.2124,-4.2211,-4.2214,-4.2199,-4.2388,-4.2416,-4.2559,-4.2326,-4.2329,-4.2332,0,-4.1677,-4.1734,-4.1881,-4.1924,-4.1954,-4.2021,-4.2084,-4.2143,-4.2189,-4.2195,-4.2238,-4.2223,-4.2309,-4.2241,-4.2359,-4.2294,-4.2329,-4.2343,-4.2349,-4.2356,-4.228,-4.24,-4.2605,-4.2626,-4.2363,-4.2361,-4.2358,0,-4.1804,-4.1917,-4.2018,-4.2046,-4.21,-4.2148,-4.2172,-4.2214,-4.2255,-4.2309,-4.2335,-4.2399,-4.2434,-4.2483,-4.2485,-4.2436,-4.2603,-4.2536,-4.261,-4.261,-4.2646,-4.2644,-4.2859,-4.267,-4.267,-4.2669,-4.2669,0,-4.1975,-4.2066,-4.2076,-4.2139,-4.2239,-4.2236,-4.2335,-4.2355,-4.2392,-4.2457,-4.2434,-4.2495,-4.2495,-4.2557,-4.256,-4.2656,-4.2672,-4.2678,-4.2678,-4.268,-4.2679,-4.2703,-4.2693,-4.2675,-4.2674,-4.2673,-4.2672,0,-4.2133,-4.2144,-4.2253,-4.2295,-4.2307,-4.2379,-4.2415,-4.2474,-4.2485,-4.2568,-4.2587,-4.2605,-4.2677,-4.2684,-4.2768,-4.2769,-4.2885,-4.2874,-4.287,-4.2868,-4.2941,-4.2933,-4.3178,-4.321,-4.3001,-4.3003,-4.3005,0,-4.2241,-4.2311,-4.236,-4.2402,-4.2429,-4.2497,-4.2539,-4.2538,-4.2582,-4.2639,-4.2691,-4.276,-4.2816,-4.2932,-4.2952,-4.3015,-4.3005,-4.3086,-4.3014,-4.3014,-4.3005,-4.3001,-4.3007,-4.31,-4.3103,-4.3104,-4.3106,0,-4.2432,-4.2433,-4.2495,-4.2558,-4.2609,-4.2658,-4.2705,-4.274,-4.2745,-4.2795,-4.2869,-4.2912,-4.2997,-4.3066,-4.3128,-4.3151,-4.313,-4.3128,-4.3149,-4.3152,-4.3146,-4.3149,-4.2907,-4.3123,-4.3121,-4.312,-4.3119,-4.3118,-4.2568,-4.2627,-4.2671,-4.274,-4.2774,-4.2818,-4.2875,-4.2894,-4.2955,-4.3024,-4.302,-4.31,-4.3142,-4.3223,-4.3252,-4.3314,-4.3287,-4.3316,-4.3324,-4.3331,-4.3338,-4.3136,-4.3325,-4.3325,-4.3324,-4.3324,-4.3324,0,-4.2756,-4.2782,-4.2846,-4.2911,-4.2965,-4.294,-4.2989,-4.3036,-4.3107,-4.3149,-4.3204,-4.3287,-4.3353,-4.3378,-4.3443,-4.3488,-4.3479,-4.3504,-4.3501,-4.3506,-4.3359,-4.3335,-4.351,-4.351,-4.351,-4.351,-4.351,-4.351,-4.2861,-4.2959,-4.2966,-4.3081,-4.3106,-4.3185,-4.3215,-4.3255,-4.3288,-4.3382,-4.3437,-4.3453,-4.3488,-4.3554,-4.3613,-4.3619,-4.3643,-4.3673,-4.3674,-4.3536,-4.3517,-4.3499,-4.3476,-4.3678,-4.3679,-4.3816,-4.3817,-4.3818]}]]